McComb, MS

3:16 AM CDT on July 25, 2017 (GMT -0500)
McComb-Pike County-Lewis

Weather History for KMCB - August, 2012

Change the Weather History Date:

Wednesday, August 1, 2012

  Actual Average Record
Temperature  
Mean Temperature 85 °F -  
Max Temperature 93 °F 91 °F 102 °F (1986)
Min Temperature 77 °F 70 °F 65 °F (1972)
Cooling Degree Days 20    
Growing Degree Days 35 (Base 50)    
Moisture  
Dew Point 76 °F    
Average Humidity 77    
Maximum Humidity 96    
Minimum Humidity 54    
Precipitation  
Precipitation 0.00 in - - ()
Sea Level Pressure  
Sea Level Pressure 29.94 in    
Wind  
Wind Speed 4 mph (West)    
Max Wind Speed 8 mph    
Max Gust Speed -    
Visibility 10 miles    
Events      
Averages and records for this station are not official NWS values.
T = Trace of Precipitation, MM = Missing Value Source: NWS Daily Summary

Daily Weather History Graph

Daily Weather History Graph

Search for Another Location

Airport or City:

Trip Planner

Search our weather history database for the weather conditions in past years. The results will help you decide how hot, cold, wet, or windy it might be!

Date:

Astronomy

Aug. 01, 2012 Rise Set
Actual Time 6:19 AM CDT 7:56 PM CDT
Civil Twilight 5:52 AM CDT 8:23 PM CDT
Nautical Twilight 5:21 AM CDT 8:54 PM CDT
Astronomical Twilight 4:47 AM CDT 9:27 PM CDT
Moon 7:31 PM CDT (8/1) 5:46 AM CDT (8/1)
Length of Visible Light 14h 30m
Length of Day
13h 37m
Full, 100% of the Moon is Illuminated
Aug 1
Full
Aug 1
Full
Aug 9
Last Quarter
Aug 17
New
Aug 24
First Quarter

Hourly Weather History & Observations

Time (CDT) Temp. Heat Index Dew Point Humidity Pressure Visibility Wind Dir Wind Speed Gust Speed Precip Events Conditions
12:53 AM 79.0 °F - 75.0 °F 88% 29.94 in 10.0 mi West 4.6 mph - N/A   Clear
1:53 AM 77.0 °F - 75.0 °F 94% 29.94 in 9.0 mi Calm Calm - N/A   Clear
2:53 AM 77.0 °F - 75.0 °F 94% 29.95 in 8.0 mi SSW 3.5 mph - N/A   Clear
3:53 AM 77.0 °F - 75.9 °F 96% 29.95 in 9.0 mi West 3.5 mph - N/A   Partly Cloudy
4:53 AM 77.0 °F - 75.9 °F 96% 29.96 in 9.0 mi Calm Calm - N/A   Clear
5:53 AM 77.0 °F - 75.0 °F 94% 29.96 in 10.0 mi West 3.5 mph - N/A   Mostly Cloudy
6:53 AM 78.1 °F - 75.9 °F 93% 29.97 in 9.0 mi West 4.6 mph - N/A   Overcast
8:53 AM 82.9 °F 90.8 °F 75.9 °F 79% 29.99 in 10.0 mi WNW 6.9 mph - N/A   Clear
9:53 AM 86.0 °F 96.0 °F 75.9 °F 72% 29.99 in 10.0 mi West 8.1 mph - N/A   Clear
11:53 AM 91.0 °F 102.9 °F 75.9 °F 61% 29.99 in 10.0 mi NNW 3.5 mph - N/A   Partly Cloudy
12:53 PM 90.0 °F 101.3 °F 75.9 °F 63% 29.97 in 10.0 mi NW 4.6 mph - N/A   Partly Cloudy
1:53 PM 91.9 °F 103.9 °F 75.9 °F 59% 29.96 in 10.0 mi West 5.8 mph - N/A   Scattered Clouds
2:53 PM 93.0 °F 104.6 °F 75.0 °F 56% 29.94 in 10.0 mi West 4.6 mph - N/A   Partly Cloudy
3:53 PM 93.9 °F 105.4 °F 75.0 °F 54% 29.92 in 10.0 mi Variable 4.6 mph - N/A   Clear
5:53 PM 93.0 °F 104.6 °F 75.0 °F 56% 29.89 in 10.0 mi West 6.9 mph - N/A   Scattered Clouds
6:53 PM 90.0 °F 101.3 °F 75.9 °F 63% 29.89 in 10.0 mi West 5.8 mph - N/A   Scattered Clouds
7:53 PM 86.0 °F 96.9 °F 77.0 °F 74% 29.88 in 10.0 mi WSW 3.5 mph - N/A   Clear
8:53 PM 84.9 °F 94.1 °F 75.9 °F 74% 29.90 in 10.0 mi Calm Calm - N/A   Clear
9:53 PM 82.9 °F 91.8 °F 77.0 °F 82% 29.91 in 10.0 mi Calm Calm - N/A   Clear
10:53 PM 81.0 °F 87.9 °F 77.0 °F 88% 29.91 in 9.0 mi Calm Calm - N/A   Clear